Regional Weather Roundup
Issued by NWS Charleston, SC

Current Version | Previous Version | Graphics & Text | Print | Product List | Glossary On
Versions: 1 2 3 4 5 6 7 8 9 10 11 12 13 14 15 16 17 18 19 20 21 22 23 24 25 26 27 28 29 30 31 32 33 34 35 36 37 38 39 40 41 42 43 44 45 46 47 48 49 50
000
ASUS42 KCHS 281828
RWRCHS

REGIONAL WEATHER ROUNDUP
NATIONAL WEATHER SERVICE CHARLESTON SC
200 PM EDT SAT MAY 28 2016

NOTE: "FAIR" INDICATES FEW OR NO CLOUDS BELOW 12,000 FEET WITH NO
SIGNIFICANT WEATHER AND/OR OBSTRUCTIONS TO VISIBILITY.

NOT ALL STATIONS ARE QUALITY CONTROLLED. USE DATA WITH CAUTION...
ESPECIALLY DEWPOINT OBSERVATIONS.

SCZ027-030-031-034>040-042>050-281900-
...SOUTHEAST SOUTH CAROLINA...

CITY           SKY/WX    TMP DP  RH WIND       PRES   REMARKS
N CHARLESTON   RAIN      74  68  81 NE10      30.11S
6HR MIN TEMP:  74; 6HR MAX TEMP:  81; 6HR PCP:  0.04;

WATERFRONT PRK   N/A     75  72  90 NE13      30.08F
MOUNT PLEASANT RAIN      72  72 100 N5        30.10F
JOHNS ISLAND   HVY RAIN  73  72  94 NE7G14    30.10S VSB 3/4
PINOPOLIS        N/A     79  70  73 E9        30.04F
MONCKS CORNER  RAIN      72  66  83 NE6       30.11S
SUMMERVILLE    DRIZZLE   75  72  88 NE3       30.12F
BEAUFORT MCAS  CLOUDY    75  67  76 E10G25    30.10R
6HR MIN TEMP:  73; 6HR MAX TEMP:  81;

BEAUFORT ARPT  LGT RAIN  73  70  88 NE15      30.09S
HILTON HEAD IS PTSUNNY   75  70  83 N12       30.10F
WALTERBORO     CLOUDY    81  68  65 E16       30.11S
ALLENDALE      FAIR      81  68  65 VRB7      30.09F

...SOUTHERN MIDLANDS AND PEE DEE...

CITY           SKY/WX    TMP DP  RH WIND       PRES   REMARKS
GEORGETOWN     LGT RAIN  70  64  83 NE8       30.13F
KINGSTREE      CLOUDY    81  63  54 E3        30.11F
ORANGEBURG     CLOUDY    81  68  64 NE6       30.11F
6HR MIN TEMP:  70; 6HR MAX TEMP:  82;

BARNWELL       MOCLDY    84  72  65 E6        30.11F
AIKEN          MOCLDY    79  64  61 NE6       30.15F
MANNING        DRIZZLE   77  70  78 CALM      30.11F
COLUMBIA       CLOUDY    84  65  52 NE9       30.12F
6HR MIN TEMP:  68; 6HR MAX TEMP:  85;

SUMTER         PTSUNNY   83  66  56 NE9       30.10F
6HR MIN TEMP:  68; 6HR MAX TEMP:  83;

FLORENCE       CLOUDY    85  64  49 E12       30.13F
6HR MIN TEMP:  69; 6HR MAX TEMP:  85;

MYRTLE BEACH   LGT RAIN  79  64  61 E12       30.14F
N MYRTLE BEACH LGT RAIN  78  69  73 E12       30.12F
6HR MIN TEMP:  71; 6HR MAX TEMP:  82; 6HR PCP: TRACE;


$$

GAZ063-065-086>088-099>101-113>116-118-119-134>141-150-281900-
...SOUTHEAST GEORGIA...

CITY           SKY/WX    TMP DP  RH WIND       PRES   REMARKS
SAVANNAH ARPT  CLOUDY    80  69  69 NE10      30.08F
6HR MIN TEMP:  69; 6HR MAX TEMP:  80;

HUNTER AAF     CLOUDY    80  72  76 NE8       30.05F
6HR MIN TEMP:  72; 6HR MAX TEMP:  80;

FORT STEWART   CLOUDY    82  66  59 N10       30.05F
6HR MIN TEMP:  69; 6HR MAX TEMP:  83;

STATESBORO     CLOUDY    83  71  67 NE6       30.09F
SYLVANIA       CLOUDY    83  71  66 E5        30.10F
CLAXTON        FAIR      84  67  56 NE6       30.08F

...CSRA...CENTRAL AND FAR SOUTHEAST GEORGIA...

CITY           SKY/WX    TMP DP  RH WIND       PRES   REMARKS
THOMSON        PTSUNNY   82  68  61 NE6       30.17F
AUGUSTA-BUSH   CLOUDY    81  67  62 N7        30.11F
6HR MIN TEMP:  66; 6HR MAX TEMP:  81; 6HR PCP: TRACE;

AUGUSTA-DANIEL CLOUDY    81  65  58 N5        30.13F
SWAINSBORO     CLOUDY    82  66  57 NE9       30.11S
VIDALIA        PTSUNNY   84  63  48 CALM      30.09F
EASTMAN        FAIR      84  63  48 E3        30.10F
HAZLEHURST     MOCLDY    86  62  44 CALM      30.07F
ALMA           MOSUNNY   84  63  49 MISG      30.06F
6HR MIN TEMP:  69; 6HR MAX TEMP:  86;

WAYCROSS       MOSUNNY   86  66  50 NE5       30.05F
JESUP          MOCLDY    82  64  54 NE10G17   30.06F
BAXLEY         PTSUNNY   86  64  48 N8        30.06F
BRUNSWICK      CLOUDY    86  68  54 NE13G22   30.06F
SAINT SIMONS   MOSUNNY   84  69  60 NE17G24   30.05F
6HR MIN TEMP:  73; 6HR MAX TEMP:  84;


$$

SCZ027-028-034-036>038-045-046-048>050-GAZ119-141-281900-
...LAKE AND SUPPLEMENTAL COASTAL OBSERVATIONS...

STATION/POSITION TIME  TEMP    WIND        PRES    WAVE   SWELL
                       AIR SEA DIR/SP/G            HT/PER HT/PER/DIR
                 (UTC) (F)     (DEG/KT/KT) (MB)    (FT/S) (FT/S/D)
WINYAH BAY       1700   75      50/ 11     1020.0S
LAKE MURRAY      1700   78      40/  3/  8 1020.3F
ACE BASIN NERRS  1700   78      30/  3     1019.0F
FORT PULASKI     1800   74 77   50/ 12/ 16 1018.9F
SAPELO ISLAND    1800   81      40/ 14     1018.0F

$$

ANZ835-935-AMZ111-154-330-350-352-354-370-450-454-472-281900-
...C-MAN AND BUOY OBSERVATIONS...

STATION/POSITION TIME  TEMP    WIND        PRES    WAVE   SWELL
                       AIR SEA DIR/SP/G            HT/PER HT/PER/DIR
                 (UTC) (F)     (DEG/KT/KT) (MB)    (FT/S) (FT/S/D)
BUOY 41004       1750   74 76   30/ 23/ 29 1016.1F   7/10   5/10
BUOY 41008       1750   74 76   50/ 17/ 21 1017.2F   5/ 9   2/110/ 9
FOLLY BEACH CMAN 1800   72      40/ 13/ 16 1019.2F
CAPERS NEARSHORE 1808   73 76   30/ 19/ 25 1018.8F
FRIPP NEARSHORE  1808   73 76   60/ 21/ 29 1017.4F


STATION/POSITION TIME  TEMP    WIND        PRES    WAVE   SWELL
                       AIR SEA DIR/SP/G            HT/PER HT/PER/DIR
                 (UTC) (F)     (DEG/KT/KT) (MB)    (FT/S) (FT/S/D)
5E ST. MARYS GA  1801      78                N/A     5/ 8   2/100/11
FRYING PAN BUOY  1800   76 76   50/ 17/ 21 1018.6F
BUOY 41025       1750   78 78   80/ 12/ 12 1021.6F   6/ 8   5/140/ 8
CAPE LOOKOUT NC  1800   76      70/  9/ 10 1021.0F
BUOY 41002       1750   76 77  100/ 16/ 19 1018.3F   4/ 6   2/110/ 8
BUOY 41010       1720   79 79  240/ 10/ 12 1015.5F
ST AUGUSTINE FL  1800   77 80  360/ 18/ 21 1017.7F


$$




USA.gov is the U.S. government's official web portal to all federal, state and local government web resources and services.